Location: Unspecified
(0.0000°N, 0.0000°E)
Time: 10:43:35
(UTC+02:00)

Amateur Radio Satellites - All Passes

Search period start: 25 May 2017 10:13
Search period end: 26 May 2017 10:13
Location: Unspecified, 0.0000°N, 0.0000°E

Satellite Date Start Highest point End Downlink Frequencies (MHz)
Time Altitude Azimuth
CUTE 1.7 + AOD 2 25 May 10:13:44 10:14:01 10° 282° (WNW) 10:14:18 437.475
HO-68 25 May 10:14:59 10:20:34 25° 285° (WNW) 10:26:11 435.675
ZACube-1 25 May 10:23:40 10:28:14 75° 281° (W) 10:32:48 437.345
CUBEBUG 2 25 May 10:29:13 10:32:22 18° 281° (WNW) 10:35:34 437.445
AAUSAT CUBESAT 2 25 May 10:33:40 10:36:48 21° 281° (WNW) 10:39:56 437.432
M-CUBED/EXP-1 PRIME 25 May 10:36:21 10:40:29 32° 254° (WSW) 10:44:28 437.505
UWE-3 25 May 10:43:16 10:46:44 21° 282° (WNW) 10:50:13 435.000/436.395/437.385
SRMSAT 25 May 10:46:05 10:47:21 11° 6° (N) 10:48:36 437.500
TIGRISAT 25 May 10:47:05 10:48:18 11° 78° (ENE) 10:49:31 435.000
DELFI C3 25 May 11:08:38 11:12:27 58° 101° (E) 11:16:19 145.870
UNISAT 6 25 May 11:15:33 11:19:26 34° 78° (ENE) 11:23:17 437.425
FO-29 25 May 11:16:12 11:21:22 37° 79° (ENE) 11:26:10 435.910
Oscar 11 25 May 11:24:12 11:26:52 16° 282° (WNW) 11:29:32 .
SO-50 25 May 11:28:38 11:32:17 24° 247° (WSW) 11:36:00 436.795
EO-88 25 May 11:39:19 11:42:56 64° 281° (WNW) 11:46:34 145.990 - 145.960
PRISM 25 May 11:56:33 12:00:22 36° 258° (WSW) 12:04:11 437.425
JUGNU 25 May 11:56:48 12:02:37 53° 21° (NNE) 12:08:25 437.505
TIGRISAT 25 May 12:21:08 12:24:44 27° 258° (WSW) 12:28:19 435.000
LO-87 25 May 12:28:33 12:32:00 47° 102° (ESE) 12:35:28 145.935 - 145.965
SRMSAT 25 May 12:33:21 12:37:26 19° 15° (NNE) 12:41:31 437.500
AIST 2D 25 May 12:44:50 12:48:11 46° 79° (E) 12:51:32 435.315
NANOSAT C BR1 25 May 12:53:27 12:56:41 22° 78° (ENE) 12:59:54 145.865
POLYITAN 1 25 May 12:55:57 12:59:31 27° 78° (ENE) 13:03:03 437.675
ESTCUBE 1 25 May 12:57:03 13:01:27 59° 102° (ESE) 13:05:52 437.505/2401.250
FO-29 25 May 13:03:37 13:06:04 13° 255° (WSW) 13:08:27 435.910
QB50P2 25 May 13:04:07 13:08:04 41° 78° (ENE) 13:11:59 145.880/145.840
DUCHIFAT 1 25 May 13:04:48 13:08:22 28° 78° (ENE) 13:11:54 145.980
YUBILEINY 25 May 13:05:27 13:10:25 16° 87° (E) 13:15:22 435.215
BUGSAT 1 25 May 13:31:36 13:33:38 14° 78° (ENE) 13:35:40 437.445
EO-79 25 May 13:41:42 13:45:49 58° 258° (WSW) 13:49:55 145.935-145.965
JUGNU 25 May 13:45:51 13:51:41 56° 201° (SSW) 13:57:30 437.505
50 SAT 25 May 13:55:51 13:58:38 24° 102° (ESE) 14:01:27 437.505
VELOX 1 25 May 14:00:23 14:04:46 80° 103° (ESE) 14:09:10 145.980
SPROUT 25 May 14:07:44 14:12:00 77° 280° (W) 14:16:18 437.525
RS-15 25 May 14:07:47 14:19:13 62° 69° (ENE) 14:30:05 29.354- 29.394
SRMSAT 25 May 14:21:19 14:26:57 45° 20° (NNE) 14:32:35 437.500
Oscar 19 25 May 14:24:02 14:28:07 23° 77° (ENE) 14:32:11 437.125/150
NANOSAT C BR1 25 May 14:30:01 14:32:07 14° 258° (WSW) 14:34:13 145.865
POLYITAN 1 25 May 14:33:59 14:35:01 11° 258° (WSW) 14:36:03 437.675
UKube-1 25 May 14:37:37 14:41:39 40° 102° (ESE) 14:45:41 .
DX 1 25 May 14:41:32 14:45:50 80° 102° (ESE) 14:50:11 434.975-435.025
DUCHIFAT 1 25 May 14:43:00 14:43:45 10° 258° (WSW) 14:44:29 145.980
YUBILEINY 25 May 14:58:12 15:06:49 60° 267° (W) 15:15:28 435.215
BUGSAT 1 25 May 15:05:45 15:08:44 20° 258° (WSW) 15:11:42 437.445
Gurwin Techsat 1B 25 May 15:26:33 15:31:51 72° 78° (ENE) 15:37:08 435.225
JUGNU 25 May 15:36:25 15:40:57 22° 197° (SSW) 15:45:28 437.505
Oscar 19 25 May 16:03:17 16:07:09 21° 257° (WSW) 16:11:01 437.125/150
SRMSAT 25 May 16:10:17 16:16:10 66° 201° (SSW) 16:22:03 437.500
ITUPSAT 1 25 May 16:10:59 16:15:17 33° 103° (ESE) 16:19:36 437.325
O/OREOS (USA 219) 25 May 16:14:33 16:18:42 39° 76° (ENE) 16:22:52 437.305
RS-15 25 May 16:23:12 16:31:06 22° 248° (WSW) 16:38:52 29.354- 29.394
MOZHAYETS 4 25 May 16:41:46 16:46:07 40° 102° (ESE) 16:50:26
BEESAT 25 May 16:45:06 16:49:52 82° 282° (WNW) 16:54:41 436.000
ITAMSAT 1 25 May 17:00:08 17:05:20 78° 77° (ENE) 17:10:28 435.822/435.867
AO-85 25 May 17:04:56 17:09:21 59° 248° (WSW) 17:14:08 145.980
AO-7 25 May 17:12:22 17:20:41 84° 74° (ENE) 17:28:57 .
CUBESAT XI-V 25 May 17:25:00 17:27:51 16° 102° (ESE) 17:30:40 437.345
JUGNU 25 May 17:28:51 17:30:44 11° 188° (S) 17:32:37 437.505
BEESAT 3 25 May 17:31:15 17:35:08 67° 68° (ENE) 17:38:58 437.485
KKS-1 25 May 17:46:42 17:50:24 26° 102° (ESE) 17:54:07 437.445
ITUPSAT 1 25 May 17:50:51 17:52:49 12° 283° (WNW) 17:54:49 437.325
SRMSAT 25 May 18:00:43 18:05:31 25° 198° (SSW) 18:10:21 437.500
STARS 25 May 18:21:53 18:25:35 27° 102° (ESE) 18:29:19 437.465
BEESAT 2 25 May 18:45:15 18:48:55 36° 248° (WSW) 18:52:33 435.950
CUTE-I 25 May 18:48:52 18:49:41 10° 77° (ENE) 18:50:31 437.470
Tancredo 1 25 May 18:57:01 18:59:47 30° 126° (SE) 19:02:32 437.200
CUBESAT XI-V 25 May 19:01:19 19:04:56 23° 282° (WNW) 19:08:34 437.345
XW-2C 25 May 19:02:20 19:04:28 15° 79° (ENE) 19:06:35 145.795 - 145.815
XW-2F 25 May 19:02:38 19:04:34 14° 78° (ENE) 19:06:30 145.980 - 146.000
NUDT-PHONESAT 25 May 19:06:58 19:08:12 11° 79° (ENE) 19:09:26 437.300
AO-7 25 May 19:11:50 19:12:56 10° 252° (WSW) 19:14:02 .
KAITUO 1B 25 May 19:12:27 19:14:38 15° 79° (ENE) 19:16:49 145.475/437.950
ISS 25 May 19:14:07 19:17:00 28° 126° (SE) 19:19:53 437.550
KKS-1 25 May 19:24:32 19:26:41 13° 282° (WNW) 19:28:51 437.445
PCSat 25 May 19:31:11 19:36:35 78° 109° (ESE) 19:41:58 145.827
LilacSat-2 25 May 19:37:08 19:40:52 60° 79° (E) 19:44:37 437.200
DOVE 4 25 May 19:46:17 19:51:13 50° 258° (WSW) 19:55:52 437.250
SRMSAT 25 May 19:52:54 19:55:23 13° 190° (S) 19:57:54 437.500
STARS 25 May 19:59:43 20:01:40 13° 282° (WNW) 20:03:37 437.465
XW-2D 25 May 20:13:31 20:16:55 33° 259° (W) 20:20:19 145.860 - 145.880
HO-68 25 May 20:18:43 20:24:47 30° 75° (ENE) 20:30:49 435.675
XW-2B 25 May 20:21:38 20:24:49 26° 259° (W) 20:28:00 145.730 - 145.750
CUTE-I 25 May 20:24:21 20:29:27 47° 257° (WSW) 20:34:32 437.470
XW-2F 25 May 20:35:59 20:38:25 17° 259° (WSW) 20:40:53 145.980 - 146.000
XW-2C 25 May 20:36:02 20:38:23 16° 259° (WSW) 20:40:44 145.795 - 145.815
NUDT-PHONESAT 25 May 20:39:12 20:41:50 19° 259° (WSW) 20:44:29 437.300
CUTE 1.7 + AOD 2 25 May 20:40:46 20:44:41 37° 79° (E) 20:48:37 437.475
KAITUO 1B 25 May 20:46:11 20:48:22 15° 259° (WSW) 20:50:33 145.475/437.950
NO-84 25 May 20:51:35 20:53:30 16° 239° (WSW) 20:55:24 435.350 FM
AAUSAT CUBESAT 2 25 May 21:02:31 21:05:01 15° 78° (ENE) 21:07:30 437.432
CUBEBUG 2 25 May 21:04:50 21:08:28 29° 79° (ENE) 21:12:04 437.445
JUGNU 25 May 21:07:38 21:10:57 15° 167° (SSE) 21:14:17 437.505
UWE-3 25 May 21:18:20 21:21:38 23° 78° (ENE) 21:24:56 435.000/436.395/437.385
STRAND 1 25 May 21:26:27 21:31:25 51° 282° (WNW) 21:36:25 437.568
XW-2A 25 May 21:30:19 21:33:20 32° 259° (WSW) 21:36:20 145.665 - 145.685
SEEDS 25 May 21:32:22 21:36:33 65° 258° (WSW) 21:40:46 437.485
Oscar 11 25 May 21:56:00 21:59:39 27° 78° (ENE) 22:03:18 .
SO-50 25 May 22:00:48 22:04:55 30° 112° (ESE) 22:08:59 436.795
HO-68 25 May 22:06:09 22:12:10 30° 255° (WSW) 22:18:13 435.675
AO-73 25 May 22:20:35 22:24:43 85° 77° (ENE) 22:28:52 145.935
ZACube-1 25 May 22:33:54 22:37:55 51° 259° (WSW) 22:41:56 437.345
M-CUBED/EXP-1 PRIME 25 May 22:36:13 22:38:57 25° 285° (WNW) 22:41:49 437.505
AAUSAT CUBESAT 2 25 May 22:37:10 22:40:12 20° 258° (WSW) 22:43:14 437.432
FO-29 25 May 22:46:48 22:52:47 27° 105° (ESE) 22:59:03 435.910
JUGNU 25 May 22:55:11 23:00:27 34° 161° (SSE) 23:05:44 437.505
UWE-3 25 May 22:56:12 22:57:50 12° 258° (WSW) 22:59:28 435.000/436.395/437.385
TIGRISAT 25 May 22:57:49 23:01:12 20° 102° (ESE) 23:04:36 435.000
DELFI C3 25 May 23:06:47 23:10:43 55° 79° (ENE) 23:14:37 145.870
UNISAT 6 25 May 23:27:54 23:32:29 57° 102° (ESE) 23:37:06 437.425
EO-88 25 May 23:29:06 23:32:44 82° 80° (E) 23:36:22 145.990 - 145.960
SRMSAT 25 May 23:32:54 23:36:02 14° 168° (SSE) 23:39:09 437.500
Oscar 11 25 May 23:33:51 23:35:31 12° 258° (WSW) 23:37:10 .
SO-50 25 May 23:42:55 23:45:07 13° 292° (WNW) 23:47:18 436.795
PRISM 25 May 23:59:10 00:02:47 32° 282° (WNW) 00:06:26 437.425
LO-87 26 May 00:16:53 00:20:03 29° 79° (E) 00:23:09 145.935 - 145.965
FO-29 26 May 00:30:47 00:37:22 38° 282° (WNW) 00:44:27 435.910
AIST 2D 26 May 00:31:07 00:34:09 27° 101° (E) 00:37:10 435.315
TIGRISAT 26 May 00:34:09 00:37:35 21° 282° (WNW) 00:41:04 435.000
JUGNU 26 May 00:43:39 00:49:32 88° 338° (NNW) 00:55:28 437.505
NANOSAT C BR1 26 May 00:58:36 01:02:12 27° 102° (ESE) 01:05:48 145.865
POLYITAN 1 26 May 01:01:42 01:05:35 34° 102° (ESE) 01:09:30 437.675
DUCHIFAT 1 26 May 01:09:43 01:13:33 34° 102° (ESE) 01:17:25 145.980
QB50P2 26 May 01:10:01 01:14:10 51° 102° (ESE) 01:18:20 145.880/145.840
ESTCUBE 1 26 May 01:10:56 01:15:29 86° 260° (W) 01:20:01 437.505/2401.250
SRMSAT 26 May 01:20:36 01:25:48 30° 161° (SSE) 01:31:01 437.500
BUGSAT 1 26 May 01:33:49 01:36:26 16° 102° (ESE) 01:39:03 437.445
YUBILEINY 26 May 01:36:20 01:43:57 34° 93° (E) 01:51:31 435.215
50 SAT 26 May 01:40:38 01:42:28 14° 79° (ENE) 01:44:18 437.505
EO-79 26 May 01:47:36 01:51:42 47° 282° (WNW) 01:55:49 145.935-145.965
RS-15 26 May 01:48:59 02:00:01 52° 110° (ESE) 02:11:31 29.354- 29.394
VELOX 1 26 May 02:11:53 02:16:20 70° 258° (WSW) 02:20:44 145.980
SPROUT 26 May 02:14:57 02:19:09 59° 258° (WSW) 02:23:18 437.525
Gurwin Techsat 1B 26 May 02:28:13 02:30:36 13° 103° (ESE) 02:32:58 435.225
JUGNU 26 May 02:33:25 02:38:39 32° 341° (NNW) 02:43:55 437.505
NANOSAT C BR1 26 May 02:36:07 02:37:37 12° 282° (WNW) 02:39:09 145.865
UKube-1 26 May 02:45:51 02:50:05 54° 78° (ENE) 02:54:17 .
DX 1 26 May 02:51:07 02:55:30 74° 258° (WSW) 02:59:50 434.975-435.025
Oscar 19 26 May 02:56:42 03:01:44 60° 103° (ESE) 03:06:47 437.125/150
BUGSAT 1 26 May 03:08:29 03:11:31 19° 282° (WNW) 03:14:34 437.445
SRMSAT 26 May 03:09:06 03:15:07 81° 159° (SSE) 03:21:08 437.500
50 SAT 26 May 03:13:16 03:15:03 14° 258° (WSW) 03:16:51 437.505
YUBILEINY 26 May 03:33:06 03:40:20 30° 273° (W) 03:47:36 435.215
AO-85 26 May 03:40:34 03:42:44 13° 115° (ESE) 03:44:50 145.980
AO-7 26 May 03:49:53 03:54:39 16° 107° (ESE) 03:59:25 .
ITAMSAT 1 26 May 03:58:49 04:01:02 13° 103° (ESE) 04:03:15 435.822/435.867
RS-15 26 May 04:02:40 04:12:07 29° 293° (WNW) 04:21:57 29.354- 29.394
Gurwin Techsat 1B 26 May 04:05:20 04:10:15 39° 283° (WNW) 04:15:11 435.225
JUGNU 26 May 04:24:55 04:28:12 15° 348° (NNW) 04:31:31 437.505
O/OREOS (USA 219) 26 May 04:25:09 04:29:43 71° 105° (ESE) 04:34:17 437.305
ITUPSAT 1 26 May 04:32:49 04:37:32 66° 78° (ENE) 04:42:15 437.325
MOZHAYETS 4 26 May 04:58:11 05:02:44 70° 78° (ENE) 05:07:17
SRMSAT 26 May 04:58:52 05:04:23 38° 340° (NNW) 05:09:55 437.500
BEESAT 26 May 05:07:17 05:11:44 41° 257° (WSW) 05:16:11 436.000
AO-85 26 May 05:18:55 05:23:00 30° 290° (WNW) 05:26:50 145.980
BEESAT 3 26 May 05:22:48 05:26:37 66° 112° (ESE) 05:30:28 437.485
ITAMSAT 1 26 May 05:35:22 05:40:11 39° 283° (WNW) 05:45:03 435.822/435.867
AO-7 26 May 05:38:45 05:46:58 63° 286° (WNW) 05:55:14 .
CUBESAT XI-V 26 May 05:42:00 05:46:03 29° 78° (ENE) 05:50:05 437.345
KKS-1 26 May 05:58:45 06:02:54 39° 78° (ENE) 06:07:00 437.445
PCSat 26 May 06:26:23 06:29:35 16° 70° (ENE) 06:32:46 145.827
Tancredo 1 26 May 06:26:33 06:28:26 15° 54° (NE) 06:30:19 437.200
DOVE 4 26 May 06:31:09 06:33:27 14° 104° (ESE) 06:35:49 437.250
STARS 26 May 06:32:23 06:36:27 37° 78° (ENE) 06:40:27 437.465
BEESAT 2 26 May 06:38:11 06:41:44 34° 292° (WNW) 06:45:18 435.950
ISS 26 May 06:48:43 06:50:58 17° 54° (NE) 06:53:13 437.550
SRMSAT 26 May 06:50:17 06:54:02 17° 346° (NNW) 06:57:46 437.500
XW-2C 26 May 06:56:42 06:58:07 12° 101° (ESE) 06:59:32 145.795 - 145.815
XW-2F 26 May 06:56:48 06:57:47 11° 102° (ESE) 06:58:44 145.980 - 146.000
NO-84 26 May 06:57:32 06:59:45 14° 121° (ESE) 07:02:00 435.350 FM
KAITUO 1B 26 May 07:05:37 07:06:53 11° 101° (ESE) 07:08:09 145.475/437.950
CUBESAT XI-V 26 May 07:20:48 07:23:08 14° 258° (WSW) 07:25:28 437.345
CUTE-I 26 May 07:24:08 07:28:51 32° 103° (ESE) 07:33:36 437.470
LilacSat-2 26 May 07:31:29 07:35:11 48° 101° (ESE) 07:38:53 437.200
Tancredo 1 26 May 08:02:29 08:03:59 13° 234° (SW) 08:05:28 437.200
JUGNU 26 May 08:06:12 08:08:30 12° 9° (N) 08:10:48 437.505
XW-2D 26 May 08:06:54 08:10:32 42° 281° (W) 08:14:08 145.860 - 145.880
DOVE 4 26 May 08:07:15 08:10:49 25° 280° (W) 08:14:35 437.250
PCSat 26 May 08:07:53 08:12:42 33° 251° (WSW) 08:17:31 145.827
HO-68 26 May 08:10:42 08:16:20 25° 105° (ESE) 08:21:57 435.675
XW-2B 26 May 08:14:59 08:18:26 33° 281° (WNW) 08:21:53 145.730 - 145.750
STRAND 1 26 May 08:21:08 08:25:09 24° 77° (ENE) 08:29:10 437.568
ISS 26 May 08:25:34 08:27:15 13° 234° (SW) 08:28:58 437.550
XW-2F 26 May 08:28:42 08:31:39 21° 281° (WNW) 08:34:35 145.980 - 146.000
XW-2C 26 May 08:29:11 08:32:02 20° 281° (WNW) 08:34:53 145.795 - 145.815
NUDT-PHONESAT 26 May 08:30:07 08:33:15 26° 281° (WNW) 08:36:25 437.300
NO-84 26 May 08:33:21 08:37:07 31° 302° (WNW) 08:41:00 435.350 FM
KAITUO 1B 26 May 08:37:50 08:40:37 20° 281° (WNW) 08:43:24 145.475/437.950
SRMSAT 26 May 08:43:42 08:44:13 10° 356° (N) 08:44:44 437.500
CUTE 1.7 + AOD 2 26 May 08:46:53 08:50:55 45° 101° (ESE) 08:54:57 437.475
M-CUBED/EXP-1 PRIME 26 May 09:03:05 09:04:21 11° 75° (ENE) 09:05:36 437.505
CUTE-I 26 May 09:05:22 09:08:37 16° 283° (WNW) 09:11:53 437.470
AAUSAT CUBESAT 2 26 May 09:05:42 09:08:21 17° 101° (ESE) 09:11:01 437.432
XW-2A 26 May 09:12:28 09:15:53 72° 281° (W) 09:19:19 145.665 - 145.685
CUBEBUG 2 26 May 09:16:01 09:20:35 49° 102° (ESE) 09:25:11 437.445
UWE-3 26 May 09:28:19 09:32:38 38° 102° (ESE) 09:36:57 435.000/436.395/437.385
SEEDS 26 May 09:37:37 09:41:40 53° 282° (WNW) 09:45:44 437.485
JUGNU 26 May 09:53:34 09:58:17 24° 17° (NNE) 10:03:00 437.505
HO-68 26 May 09:57:19 10:03:43 36° 285° (WNW) 10:10:08 435.675
STRAND 1 26 May 10:00:23 10:04:03 20° 257° (WSW) 10:07:43 437.568
Oscar 11 26 May 10:04:19 10:08:16 35° 101° (ESE) 10:12:14 .
